Wetterdaten: Mittwoch, 05.06.2019
Datum Zeit Temp. Auen Feucht Auen Luftdruck Regen Richtung Richtung Windben
05.06.2019 00:00 15,2 C 80 % 1008,9 hPa 0,0 mm O 90 1,6 km/h (1 Bft)
05.06.2019 00:05 15,1 C 80 % 1009,0 hPa 0,0 mm O 90 1,6 km/h (1 Bft)
05.06.2019 00:10 15,0 C 81 % 1008,9 hPa 0,0 mm O 90 3,2 km/h (1 Bft)
05.06.2019 00:15 14,8 C 81 % 1008,9 hPa 0,0 mm O 92 4,8 km/h (1 Bft)
05.06.2019 00:20 14,7 C 82 % 1008,9 hPa 0,0 mm O-SO 118 3,2 km/h (1 Bft)
05.06.2019 00:25 14,7 C 82 % 1008,9 hPa 0,0 mm O-SO 118 3,2 km/h (1 Bft)
05.06.2019 00:30 14,6 C 83 % 1008,9 hPa 0,0 mm O-SO 118 1,6 km/h (1 Bft)
05.06.2019 00:35 14,6 C 83 % 1009,0 hPa 0,0 mm O-SO 118 1,6 km/h (1 Bft)
05.06.2019 00:40 14,5 C 83 % 1008,9 hPa 0,0 mm O-SO 118 0,0 km/h (0 Bft)
05.06.2019 00:45 14,5 C 83 % 1008,9 hPa 0,0 mm O-SO 118 0,0 km/h (0 Bft)
05.06.2019 00:50 14,4 C 83 % 1008,9 hPa 0,0 mm O-SO 118 0,0 km/h (0 Bft)
05.06.2019 00:55 14,4 C 83 % 1008,9 hPa 0,0 mm O-SO 118 0,0 km/h (0 Bft)
05.06.2019 01:00 14,4 C 83 % 1008,9 hPa 0,0 mm O-SO 118 0,0 km/h (0 Bft)
05.06.2019 01:05 14,3 C 83 % 1008,9 hPa 0,0 mm O-SO 118 0,0 km/h (0 Bft)
05.06.2019 01:10 14,2 C 83 % 1008,8 hPa 0,0 mm O-SO 118 0,0 km/h (0 Bft)
05.06.2019 01:15 14,2 C 83 % 1008,8 hPa 0,0 mm O-SO 118 0,0 km/h (0 Bft)
05.06.2019 01:20 14,2 C 83 % 1008,7 hPa 0,0 mm O-SO 118 0,0 km/h (0 Bft)
05.06.2019 01:25 14,2 C 84 % 1008,7 hPa 0,0 mm O-SO 118 0,0 km/h (0 Bft)
05.06.2019 01:30 14,2 C 84 % 1008,7 hPa 0,0 mm O-SO 118 0,0 km/h (0 Bft)
05.06.2019 01:35 14,1 C 84 % 1008,6 hPa 0,0 mm O-SO 118 0,0 km/h (0 Bft)
05.06.2019 01:40 13,9 C 84 % 1008,6 hPa 0,0 mm O-SO 118 0,0 km/h (0 Bft)
05.06.2019 01:45 13,9 C 84 % 1008,7 hPa 0,0 mm O-SO 118 0,0 km/h (0 Bft)
05.06.2019 01:50 13,8 C 84 % 1008,6 hPa 0,0 mm O-SO 118 0,0 km/h (0 Bft)
05.06.2019 01:55 13,7 C 84 % 1008,6 hPa 0,0 mm O-SO 118 3,2 km/h (1 Bft)
05.06.2019 02:00 13,7 C 84 % 1008,6 hPa 0,0 mm O-SO 118 1,6 km/h (1 Bft)
05.06.2019 02:05 13,6 C 84 % 1008,5 hPa 0,0 mm O-SO 118 1,6 km/h (1 Bft)
05.06.2019 02:10 13,5 C 84 % 1008,6 hPa 0,0 mm O-SO 118 0,0 km/h (0 Bft)
05.06.2019 02:15 13,4 C 85 % 1008,6 hPa 0,0 mm O-SO 118 0,0 km/h (0 Bft)
05.06.2019 02:20 13,4 C 85 % 1008,6 hPa 0,0 mm O-SO 118 0,0 km/h (0 Bft)
05.06.2019 02:25 13,3 C 85 % 1008,5 hPa 0,0 mm O-SO 118 0,0 km/h (0 Bft)
05.06.2019 02:30 13,3 C 85 % 1008,5 hPa 0,0 mm O-SO 118 1,6 km/h (1 Bft)
05.06.2019 02:35 13,2 C 85 % 1008,6 hPa 0,0 mm O-SO 118 1,6 km/h (1 Bft)
05.06.2019 02:40 13,2 C 85 % 1008,5 hPa 0,0 mm O-SO 118 1,6 km/h (1 Bft)
05.06.2019 02:45 13,1 C 85 % 1008,5 hPa 0,0 mm O-SO 118 3,2 km/h (1 Bft)
05.06.2019 02:50 13,0 C 86 % 1008,6 hPa 0,0 mm S-SW 202 3,2 km/h (1 Bft)
05.06.2019 02:55 13,0 C 86 % 1008,5 hPa 0,0 mm S-SW 202 1,6 km/h (1 Bft)
05.06.2019 03:00 12,9 C 86 % 1008,6 hPa 0,0 mm S-SW 202 0,0 km/h (0 Bft)
05.06.2019 03:05 12,9 C 86 % 1008,5 hPa 0,0 mm S-SW 202 0,0 km/h (0 Bft)
05.06.2019 03:10 12,8 C 86 % 1008,5 hPa 0,0 mm S-SW 208 3,2 km/h (1 Bft)
05.06.2019 03:15 12,8 C 86 % 1008,4 hPa 0,0 mm SW 227 4,8 km/h (1 Bft)
05.06.2019 03:20 12,7 C 86 % 1008,4 hPa 0,0 mm SW 227 1,6 km/h (1 Bft)
05.06.2019 03:25 12,7 C 86 % 1008,4 hPa 0,0 mm SW 227 1,6 km/h (1 Bft)
05.06.2019 03:30 12,7 C 86 % 1008,4 hPa 0,0 mm SW 227 0,0 km/h (0 Bft)
05.06.2019 03:35 12,7 C 87 % 1008,4 hPa 0,0 mm SW 227 0,0 km/h (0 Bft)
05.06.2019 03:40 12,6 C 87 % 1008,4 hPa 0,0 mm SW 227 0,0 km/h (0 Bft)
05.06.2019 03:45 12,6 C 87 % 1008,3 hPa 0,0 mm SW 227 0,0 km/h (0 Bft)
05.06.2019 03:50 12,6 C 87 % 1008,2 hPa 0,0 mm SW 227 0,0 km/h (0 Bft)
05.06.2019 03:55 12,5 C 87 % 1008,2 hPa 0,0 mm SW 227 0,0 km/h (0 Bft)
05.06.2019 04:00 12,4 C 87 % 1008,2 hPa 0,0 mm SW 227 0,0 km/h (0 Bft)
05.06.2019 04:05 12,4 C 87 % 1008,0 hPa 0,0 mm SW 227 1,6 km/h (1 Bft)
05.06.2019 04:10 12,3 C 87 % 1008,0 hPa 0,0 mm SW 227 3,2 km/h (1 Bft)
05.06.2019 04:15 12,2 C 87 % 1008,0 hPa 0,0 mm SW 227 0,0 km/h (0 Bft)
05.06.2019 04:20 12,2 C 87 % 1008,0 hPa 0,0 mm SW 227 0,0 km/h (0 Bft)
05.06.2019 04:25 12,1 C 87 % 1008,1 hPa 0,0 mm SW 227 0,0 km/h (0 Bft)
05.06.2019 04:30 12,1 C 87 % 1008,0 hPa 0,0 mm SW 227 0,0 km/h (0 Bft)
05.06.2019 04:35 12,0 C 87 % 1007,9 hPa 0,0 mm SW 227 0,0 km/h (0 Bft)
05.06.2019 04:40 11,9 C 87 % 1008,0 hPa 0,0 mm SW 227 0,0 km/h (0 Bft)
05.06.2019 04:45 11,9 C 87 % 1008,0 hPa 0,0 mm SW 227 0,0 km/h (0 Bft)
05.06.2019 04:50 11,9 C 88 % 1007,9 hPa 0,0 mm SW 227 0,0 km/h (0 Bft)
05.06.2019 04:55 11,9 C 88 % 1007,9 hPa 0,0 mm SW 227 0,0 km/h (0 Bft)
05.06.2019 05:00 11,9 C 88 % 1007,9 hPa 0,0 mm SW 227 0,0 km/h (0 Bft)
05.06.2019 05:05 11,9 C 88 % 1007,9 hPa 0,0 mm SW 227 0,0 km/h (0 Bft)
05.06.2019 05:10 11,8 C 88 % 1008,0 hPa 0,0 mm SW 227 3,2 km/h (1 Bft)
05.06.2019 05:15 11,8 C 88 % 1007,9 hPa 0,0 mm SW 227 3,2 km/h (1 Bft)
05.06.2019 05:20 11,8 C 88 % 1007,9 hPa 0,0 mm SW 227 3,2 km/h (1 Bft)
05.06.2019 05:25 11,7 C 88 % 1007,9 hPa 0,0 mm SW 227 3,2 km/h (1 Bft)
05.06.2019 05:30 11,7 C 88 % 1008,0 hPa 0,0 mm SW 227 0,0 km/h (0 Bft)
05.06.2019 05:35 11,6 C 88 % 1007,9 hPa 0,0 mm SW 227 0,0 km/h (0 Bft)
05.06.2019 05:40 11,6 C 88 % 1007,9 hPa 0,0 mm SW 227 0,0 km/h (0 Bft)
05.06.2019 05:45 11,6 C 88 % 1008,0 hPa 0,0 mm SW 227 0,0 km/h (0 Bft)
05.06.2019 05:50 11,6 C 88 % 1007,9 hPa 0,0 mm SW 227 0,0 km/h (0 Bft)
05.06.2019 05:55 11,7 C 89 % 1007,9 hPa 0,0 mm SW 227 0,0 km/h (0 Bft)
05.06.2019 06:00 11,9 C 89 % 1008,0 hPa 0,0 mm SW 227 0,0 km/h (0 Bft)
05.06.2019 06:05 12,2 C 90 % 1008,0 hPa 0,0 mm SW 227 0,0 km/h (0 Bft)
05.06.2019 06:10 12,3 C 90 % 1008,1 hPa 0,0 mm SW 227 0,0 km/h (0 Bft)
05.06.2019 06:15 12,7 C 90 % 1008,1 hPa 0,0 mm SW 227 0,0 km/h (0 Bft)
05.06.2019 06:20 12,9 C 90 % 1008,1 hPa 0,0 mm SW 227 0,0 km/h (0 Bft)
05.06.2019 06:25 13,2 C 90 % 1008,1 hPa 0,0 mm SW 227 0,0 km/h (0 Bft)
05.06.2019 06:30 13,6 C 91 % 1008,1 hPa 0,0 mm SW 227 0,0 km/h (0 Bft)
05.06.2019 06:35 13,9 C 91 % 1008,1 hPa 0,0 mm SW 227 0,0 km/h (0 Bft)
05.06.2019 06:40 14,3 C 91 % 1008,1 hPa 0,0 mm SW 227 0,0 km/h (0 Bft)
05.06.2019 06:45 14,9 C 89 % 1008,1 hPa 0,0 mm SW 227 0,0 km/h (0 Bft)
05.06.2019 06:50 15,6 C 86 % 1008,2 hPa 0,0 mm SW 227 1,6 km/h (1 Bft)
05.06.2019 06:55 16,3 C 83 % 1008,1 hPa 0,0 mm SW 227 1,6 km/h (1 Bft)
05.06.2019 07:00 16,6 C 82 % 1008,0 hPa 0,0 mm SW 227 1,6 km/h (1 Bft)
05.06.2019 07:05 16,8 C 80 % 1008,0 hPa 0,0 mm SW 227 3,2 km/h (1 Bft)
05.06.2019 07:10 17,2 C 80 % 1008,0 hPa 0,0 mm SW 227 3,2 km/h (1 Bft)
05.06.2019 07:15 16,9 C 81 % 1008,0 hPa 0,0 mm SW 227 1,6 km/h (1 Bft)
05.06.2019 07:20 16,8 C 81 % 1007,9 hPa 0,0 mm SW 227 0,0 km/h (0 Bft)
05.06.2019 07:25 16,7 C 83 % 1008,0 hPa 0,0 mm SW 227 0,0 km/h (0 Bft)
05.06.2019 07:30 16,9 C 82 % 1007,9 hPa 0,0 mm SW 227 0,0 km/h (0 Bft)
05.06.2019 07:35 17,4 C 81 % 1007,9 hPa 0,0 mm SW 227 0,0 km/h (0 Bft)
05.06.2019 07:40 17,9 C 78 % 1007,9 hPa 0,0 mm SW 227 0,0 km/h (0 Bft)
05.06.2019 07:45 18,1 C 79 % 1008,0 hPa 0,0 mm SW 227 0,0 km/h (0 Bft)
05.06.2019 07:50 18,3 C 78 % 1008,0 hPa 0,0 mm SW 227 1,6 km/h (1 Bft)
05.06.2019 07:55 18,3 C 77 % 1008,0 hPa 0,0 mm O-SO 111 3,2 km/h (1 Bft)
05.06.2019 08:00 18,4 C 76 % 1008,0 hPa 0,0 mm O-SO 111 1,6 km/h (1 Bft)
05.06.2019 08:05 18,9 C 75 % 1008,0 hPa 0,0 mm O-SO 111 0,0 km/h (0 Bft)
05.06.2019 08:10 19,0 C 75 % 1007,9 hPa 0,0 mm O-SO 111 4,8 km/h (1 Bft)
05.06.2019 08:15 19,1 C 76 % 1008,0 hPa 0,0 mm O-SO 121 4,8 km/h (1 Bft)
05.06.2019 08:20 19,3 C 76 % 1007,9 hPa 0,0 mm S-SO 152 6,4 km/h (2 Bft)
05.06.2019 08:25 19,7 C 76 % 1008,0 hPa 0,0 mm S-SO 152 4,8 km/h (1 Bft)
05.06.2019 08:30 19,4 C 75 % 1008,0 hPa 0,0 mm S-SO 152 4,8 km/h (1 Bft)
05.06.2019 08:35 19,7 C 76 % 1007,9 hPa 0,0 mm SO 132 4,8 km/h (1 Bft)
05.06.2019 08:40 19,7 C 73 % 1008,0 hPa 0,0 mm O-SO 123 4,8 km/h (1 Bft)
05.06.2019 08:45 19,9 C 76 % 1007,9 hPa 0,0 mm O-SO 122 6,4 km/h (2 Bft)
05.06.2019 08:50 20,1 C 75 % 1007,9 hPa 0,0 mm O-SO 121 4,8 km/h (1 Bft)
05.06.2019 08:55 20,2 C 73 % 1007,8 hPa 0,0 mm O-SO 109 4,8 km/h (1 Bft)
05.06.2019 09:00 20,3 C 73 % 1007,8 hPa 0,0 mm O-SO 109 3,2 km/h (1 Bft)
05.06.2019 09:05 20,6 C 74 % 1007,8 hPa 0,0 mm O-SO 109 3,2 km/h (1 Bft)
05.06.2019 09:10 20,7 C 71 % 1007,8 hPa 0,0 mm O-SO 109 3,2 km/h (1 Bft)
05.06.2019 09:15 21,0 C 74 % 1007,7 hPa 0,0 mm O-SO 109 3,2 km/h (1 Bft)
05.06.2019 09:20 21,2 C 73 % 1007,8 hPa 0,0 mm O-SO 116 6,4 km/h (2 Bft)
05.06.2019 09:25 21,3 C 72 % 1007,8 hPa 0,0 mm SO 131 6,4 km/h (2 Bft)
05.06.2019 09:30 21,4 C 71 % 1007,8 hPa 0,0 mm SO 134 4,8 km/h (1 Bft)
05.06.2019 09:35 21,7 C 72 % 1007,8 hPa 0,0 mm SO 134 4,8 km/h (1 Bft)
05.06.2019 09:40 22,1 C 71 % 1007,8 hPa 0,0 mm SO 134 3,2 km/h (1 Bft)
05.06.2019 09:45 22,0 C 69 % 1007,7 hPa 0,0 mm SO 134 3,2 km/h (1 Bft)
05.06.2019 09:50 22,3 C 70 % 1007,7 hPa 0,0 mm O 87 4,8 km/h (1 Bft)
05.06.2019 09:55 22,6 C 70 % 1007,7 hPa 0,0 mm O-NO 64 6,4 km/h (2 Bft)
05.06.2019 10:00 22,6 C 67 % 1007,7 hPa 0,0 mm O-SO 105 4,8 km/h (1 Bft)
05.06.2019 10:05 22,9 C 69 % 1007,7 hPa 0,0 mm O-SO 105 4,8 km/h (1 Bft)
05.06.2019 10:10 23,2 C 73 % 1007,7 hPa 0,0 mm O-SO 110 4,8 km/h (1 Bft)
05.06.2019 10:15 23,3 C 69 % 1007,7 hPa 0,0 mm O 100 8,0 km/h (2 Bft)
05.06.2019 10:20 23,2 C 69 % 1007,7 hPa 0,0 mm O-SO 120 8,0 km/h (2 Bft)
05.06.2019 10:25 23,4 C 66 % 1007,7 hPa 0,0 mm O-SO 113 8,0 km/h (2 Bft)
05.06.2019 10:30 23,4 C 66 % 1007,8 hPa 0,0 mm SO 142 8,0 km/h (2 Bft)
05.06.2019 10:35 23,5 C 64 % 1007,8 hPa 0,0 mm SO 142 8,0 km/h (2 Bft)
05.06.2019 10:40 23,6 C 64 % 1007,8 hPa 0,0 mm SO 142 4,8 km/h (1 Bft)
05.06.2019 10:45 24,0 C 58 % 1007,7 hPa 0,0 mm SO 142 4,8 km/h (1 Bft)
05.06.2019 10:50 24,3 C 60 % 1007,7 hPa 0,0 mm SO 142 4,8 km/h (1 Bft)
05.06.2019 10:55 24,6 C 57 % 1007,7 hPa 0,0 mm SO 142 3,2 km/h (1 Bft)
05.06.2019 11:00 24,6 C 53 % 1007,7 hPa 0,0 mm SO 142 4,8 km/h (1 Bft)
05.06.2019 11:05 24,6 C 56 % 1007,6 hPa 0,0 mm O-SO 108 4,8 km/h (1 Bft)
05.06.2019 11:10 24,8 C 61 % 1007,6 hPa 0,0 mm O 81 4,8 km/h (1 Bft)
05.06.2019 11:15 25,0 C 61 % 1007,7 hPa 0,0 mm O-SO 109 6,4 km/h (2 Bft)
05.06.2019 11:20 25,1 C 57 % 1007,5 hPa 0,0 mm O 101 9,7 km/h (2 Bft)
05.06.2019 11:25 25,0 C 55 % 1007,5 hPa 0,0 mm O-NO 65 8,0 km/h (2 Bft)
05.06.2019 11:30 25,4 C 61 % 1007,6 hPa 0,0 mm O-NO 68 4,8 km/h (1 Bft)
05.06.2019 11:35 25,7 C 57 % 1007,6 hPa 0,0 mm O-NO 69 3,2 km/h (1 Bft)
05.06.2019 11:40 25,4 C 57 % 1007,5 hPa 0,0 mm O 80 8,0 km/h (2 Bft)
05.06.2019 11:45 25,5 C 56 % 1007,4 hPa 0,0 mm O 89 3,2 km/h (1 Bft)
05.06.2019 11:50 26,0 C 55 % 1007,4 hPa 0,0 mm O-SO 123 4,8 km/h (1 Bft)
05.06.2019 11:55 25,9 C 55 % 1007,3 hPa 0,0 mm S-SO 154 8,0 km/h (2 Bft)
05.06.2019 12:00 26,0 C 60 % 1007,3 hPa 0,0 mm W-SW 251 4,8 km/h (1 Bft)
05.06.2019 12:05 26,5 C 55 % 1007,2 hPa 0,0 mm SW 216 4,8 km/h (1 Bft)
05.06.2019 12:10 25,9 C 59 % 1007,2 hPa 0,0 mm O-SO 113 8,0 km/h (2 Bft)
05.06.2019 12:15 25,8 C 57 % 1007,2 hPa 0,0 mm O-SO 119 11,3 km/h (2 Bft)
05.06.2019 12:20 26,2 C 60 % 1007,1 hPa 0,0 mm O 90 11,3 km/h (2 Bft)
05.06.2019 12:25 25,9 C 61 % 1007,1 hPa 0,0 mm O 95 14,5 km/h (3 Bft)
05.06.2019 12:30 25,9 C 60 % 1007,1 hPa 0,0 mm O 94 14,5 km/h (3 Bft)
05.06.2019 12:35 25,8 C 63 % 1007,0 hPa 0,0 mm O 88 12,9 km/h (3 Bft)
05.06.2019 12:40 25,8 C 61 % 1007,0 hPa 0,0 mm O-NO 74 12,9 km/h (3 Bft)
05.06.2019 12:45 25,9 C 58 % 1007,0 hPa 0,0 mm O-SO 105 14,5 km/h (3 Bft)
05.06.2019 12:50 25,9 C 62 % 1006,9 hPa 0,0 mm S-SO 148 14,5 km/h (3 Bft)
05.06.2019 12:55 26,0 C 62 % 1006,8 hPa 0,0 mm O 90 14,5 km/h (3 Bft)
05.06.2019 13:00 26,2 C 58 % 1006,7 hPa 0,0 mm SO 135 12,9 km/h (3 Bft)
05.06.2019 13:05 26,4 C 61 % 1006,8 hPa 0,0 mm SO 126 12,9 km/h (3 Bft)
05.06.2019 13:10 26,3 C 58 % 1006,7 hPa 0,0 mm SO 133 12,9 km/h (3 Bft)
05.06.2019 13:15 26,3 C 57 % 1006,6 hPa 0,0 mm O-NO 69 14,5 km/h (3 Bft)
05.06.2019 13:20 26,3 C 51 % 1006,6 hPa 0,0 mm O-SO 112 12,9 km/h (3 Bft)
05.06.2019 13:25 26,4 C 55 % 1006,5 hPa 0,0 mm O-NO 73 14,5 km/h (3 Bft)
05.06.2019 13:30 26,4 C 55 % 1006,5 hPa 0,0 mm O 85 12,9 km/h (3 Bft)
05.06.2019 13:35 26,5 C 56 % 1006,4 hPa 0,0 mm NO 42 14,5 km/h (3 Bft)
05.06.2019 13:40 26,6 C 56 % 1006,3 hPa 0,0 mm O-SO 117 12,9 km/h (3 Bft)
05.06.2019 13:45 26,6 C 53 % 1006,3 hPa 0,0 mm O-SO 103 14,5 km/h (3 Bft)
05.06.2019 13:50 26,7 C 56 % 1006,2 hPa 0,0 mm O 88 12,9 km/h (3 Bft)
05.06.2019 13:55 26,8 C 58 % 1006,2 hPa 0,0 mm O-SO 117 12,9 km/h (3 Bft)
05.06.2019 14:00 26,7 C 54 % 1006,2 hPa 0,0 mm O-NO 66 12,9 km/h (3 Bft)
05.06.2019 14:05 26,7 C 53 % 1006,2 hPa 0,0 mm SO 127 12,9 km/h (3 Bft)
05.06.2019 14:10 26,7 C 55 % 1006,1 hPa 0,0 mm O 80 12,9 km/h (3 Bft)
05.06.2019 14:15 26,8 C 55 % 1006,1 hPa 0,0 mm O-SO 119 14,5 km/h (3 Bft)
05.06.2019 14:20 26,8 C 56 % 1006,0 hPa 0,0 mm SO 142 12,9 km/h (3 Bft)
05.06.2019 14:25 26,8 C 54 % 1006,0 hPa 0,0 mm O-SO 119 11,3 km/h (2 Bft)
05.06.2019 14:30 26,8 C 55 % 1005,9 hPa 0,0 mm O 84 12,9 km/h (3 Bft)
05.06.2019 14:35 26,8 C 54 % 1005,8 hPa 0,0 mm SO 132 14,5 km/h (3 Bft)
05.06.2019 14:40 26,9 C 57 % 1005,8 hPa 0,0 mm O-SO 121 12,9 km/h (3 Bft)
05.06.2019 14:45 26,9 C 54 % 1005,6 hPa 0,0 mm O-SO 103 14,5 km/h (3 Bft)
05.06.2019 14:50 26,9 C 54 % 1005,6 hPa 0,0 mm SO 126 14,5 km/h (3 Bft)
05.06.2019 14:55 26,9 C 55 % 1005,6 hPa 0,0 mm O-SO 123 16,1 km/h (3 Bft)
05.06.2019 15:00 27,1 C 51 % 1005,5 hPa 0,0 mm O 90 14,5 km/h (3 Bft)
05.06.2019 15:05 27,1 C 55 % 1005,5 hPa 0,0 mm O 82 14,5 km/h (3 Bft)
05.06.2019 15:10 27,1 C 51 % 1005,4 hPa 0,0 mm O 93 16,1 km/h (3 Bft)
05.06.2019 15:15 27,2 C 51 % 1005,3 hPa 0,0 mm O-NO 67 16,1 km/h (3 Bft)
05.06.2019 15:20 27,1 C 51 % 1005,3 hPa 0,0 mm O-SO 112 16,1 km/h (3 Bft)
05.06.2019 15:25 26,9 C 49 % 1005,2 hPa 0,0 mm O 84 20,9 km/h (4 Bft)
05.06.2019 15:30 26,9 C 46 % 1005,1 hPa 0,0 mm O-SO 117 17,7 km/h (3 Bft)
05.06.2019 15:35 27,0 C 51 % 1005,1 hPa 0,0 mm O-NO 60 12,9 km/h (3 Bft)
05.06.2019 15:40 27,1 C 51 % 1005,0 hPa 0,0 mm O-SO 105 14,5 km/h (3 Bft)
05.06.2019 15:45 27,1 C 46 % 1005,0 hPa 0,0 mm O-SO 110 12,9 km/h (3 Bft)
05.06.2019 15:50 27,0 C 46 % 1005,0 hPa 0,0 mm O 93 14,5 km/h (3 Bft)
05.06.2019 15:55 27,1 C 47 % 1004,9 hPa 0,0 mm NO 51 12,9 km/h (3 Bft)
05.06.2019 16:00 27,4 C 46 % 1004,8 hPa 0,0 mm O-NO 62 8,0 km/h (2 Bft)
05.06.2019 16:05 27,4 C 45 % 1004,8 hPa 0,0 mm O 98 9,7 km/h (2 Bft)
05.06.2019 16:10 27,2 C 52 % 1004,7 hPa 0,0 mm O-NO 69 14,5 km/h (3 Bft)
05.06.2019 16:15 27,1 C 52 % 1004,7 hPa 0,0 mm O 90 14,5 km/h (3 Bft)
05.06.2019 16:20 27,0 C 46 % 1004,6 hPa 0,0 mm O-SO 111 14,5 km/h (3 Bft)
05.06.2019 16:25 26,9 C 50 % 1004,6 hPa 0,0 mm O-SO 109 14,5 km/h (3 Bft)
05.06.2019 16:30 26,9 C 49 % 1004,7 hPa 0,0 mm O-SO 105 12,9 km/h (3 Bft)
05.06.2019 16:35 26,9 C 47 % 1004,6 hPa 0,0 mm O-NO 76 14,5 km/h (3 Bft)
05.06.2019 16:40 27,0 C 49 % 1004,6 hPa 0,0 mm O-SO 116 14,5 km/h (3 Bft)
05.06.2019 16:45 27,0 C 49 % 1004,6 hPa 0,0 mm O-SO 123 12,9 km/h (3 Bft)
05.06.2019 16:50 26,9 C 48 % 1004,6 hPa 0,0 mm O 84 16,1 km/h (3 Bft)
05.06.2019 16:55 27,1 C 45 % 1004,6 hPa 0,0 mm O-NO 77 12,9 km/h (3 Bft)
05.06.2019 17:00 27,0 C 54 % 1004,6 hPa 0,0 mm O 88 14,5 km/h (3 Bft)
05.06.2019 17:05 26,8 C 50 % 1004,5 hPa 0,0 mm O 82 16,1 km/h (3 Bft)
05.06.2019 17:10 26,8 C 49 % 1004,5 hPa 0,0 mm O 81 12,9 km/h (3 Bft)
05.06.2019 17:15 26,7 C 48 % 1004,5 hPa 0,0 mm O-NO 71 16,1 km/h (3 Bft)
05.06.2019 17:20 26,7 C 49 % 1004,4 hPa 0,0 mm O-NO 78 17,7 km/h (3 Bft)
05.06.2019 17:25 26,6 C 50 % 1004,5 hPa 0,0 mm O 84 17,7 km/h (3 Bft)
05.06.2019 17:30 26,5 C 49 % 1004,5 hPa 0,0 mm O-NO 65 12,9 km/h (3 Bft)
05.06.2019 17:35 26,5 C 46 % 1004,4 hPa 0,0 mm O 82 16,1 km/h (3 Bft)
05.06.2019 17:40 26,4 C 47 % 1004,4 hPa 0,0 mm O 84 14,5 km/h (3 Bft)
05.06.2019 17:45 26,5 C 49 % 1004,3 hPa 0,0 mm O 96 16,1 km/h (3 Bft)
05.06.2019 17:50 26,4 C 46 % 1004,3 hPa 0,0 mm NO 46 17,7 km/h (3 Bft)
05.06.2019 17:55 26,5 C 50 % 1004,2 hPa 0,0 mm O-SO 103 12,9 km/h (3 Bft)
05.06.2019 18:00 26,3 C 46 % 1004,2 hPa 0,0 mm O 83 12,9 km/h (3 Bft)
05.06.2019 18:05 26,1 C 53 % 1004,2 hPa 0,0 mm O-NO 78 9,7 km/h (2 Bft)
05.06.2019 18:10 26,0 C 50 % 1004,2 hPa 0,0 mm O-NO 78 12,9 km/h (3 Bft)
05.06.2019 18:15 25,8 C 51 % 1004,2 hPa 0,0 mm O 96 12,9 km/h (3 Bft)
05.06.2019 18:20 25,7 C 53 % 1004,2 hPa 0,0 mm O-NO 72 14,5 km/h (3 Bft)
05.06.2019 18:25 25,7 C 48 % 1004,1 hPa 0,0 mm O 89 17,7 km/h (3 Bft)
05.06.2019 18:30 25,4 C 48 % 1004,1 hPa 0,0 mm O-NO 78 20,9 km/h (4 Bft)
05.06.2019 18:35 25,3 C 45 % 1004,1 hPa 0,0 mm O 101 16,1 km/h (3 Bft)
05.06.2019 18:40 25,2 C 48 % 1004,1 hPa 0,0 mm O-NO 64 14,5 km/h (3 Bft)
05.06.2019 18:45 24,9 C 52 % 1004,0 hPa 0,0 mm O 100 14,5 km/h (3 Bft)
05.06.2019 18:50 24,8 C 51 % 1004,0 hPa 0,0 mm O 84 14,5 km/h (3 Bft)
05.06.2019 18:55 24,8 C 48 % 1003,9 hPa 0,0 mm O-NO 69 14,5 km/h (3 Bft)
05.06.2019 19:00 24,7 C 48 % 1003,8 hPa 0,0 mm O 83 16,1 km/h (3 Bft)
05.06.2019 19:05 24,7 C 51 % 1003,9 hPa 0,0 mm O 81 16,1 km/h (3 Bft)
05.06.2019 19:10 24,3 C 53 % 1003,9 hPa 0,0 mm O 80 9,7 km/h (2 Bft)
05.06.2019 19:15 24,2 C 54 % 1003,9 hPa 0,0 mm O-NO 61 11,3 km/h (2 Bft)
05.06.2019 19:20 24,0 C 56 % 1003,8 hPa 0,0 mm O 92 8,0 km/h (2 Bft)
05.06.2019 19:25 23,8 C 55 % 1003,9 hPa 0,0 mm O 86 9,7 km/h (2 Bft)
05.06.2019 19:30 23,7 C 56 % 1003,8 hPa 0,0 mm O 84 8,0 km/h (2 Bft)
05.06.2019 19:35 23,6 C 57 % 1003,8 hPa 0,0 mm O 84 3,2 km/h (1 Bft)
05.06.2019 19:40 23,4 C 59 % 1003,8 hPa 0,0 mm O 84 4,8 km/h (1 Bft)
05.06.2019 19:45 23,3 C 59 % 1003,7 hPa 0,0 mm O 84 3,2 km/h (1 Bft)
05.06.2019 19:50 23,2 C 59 % 1003,7 hPa 0,0 mm O 84 4,8 km/h (1 Bft)
05.06.2019 19:55 23,1 C 60 % 1003,7 hPa 0,0 mm O 84 3,2 km/h (1 Bft)
05.06.2019 20:00 23,1 C 60 % 1003,8 hPa 0,0 mm O 84 3,2 km/h (1 Bft)
05.06.2019 20:05 23,0 C 58 % 1003,6 hPa 0,0 mm O 84 4,8 km/h (1 Bft)
05.06.2019 20:10 22,9 C 58 % 1003,7 hPa 0,0 mm O 84 3,2 km/h (1 Bft)
05.06.2019 20:15 22,7 C 59 % 1003,6 hPa 0,0 mm O-SO 114 4,8 km/h (1 Bft)
05.06.2019 20:20 22,6 C 59 % 1003,7 hPa 0,0 mm O-SO 105 6,4 km/h (2 Bft)
05.06.2019 20:25 22,4 C 59 % 1003,7 hPa 0,0 mm O-SO 105 1,6 km/h (1 Bft)
05.06.2019 20:30 22,3 C 59 % 1003,6 hPa 0,0 mm O-SO 105 3,2 km/h (1 Bft)
05.06.2019 20:35 22,2 C 58 % 1003,7 hPa 0,0 mm O-SO 105 3,2 km/h (1 Bft)
05.06.2019 20:40 22,2 C 59 % 1003,7 hPa 0,0 mm O-SO 105 0,0 km/h (0 Bft)
05.06.2019 20:45 22,1 C 58 % 1003,8 hPa 0,0 mm O-SO 105 1,6 km/h (1 Bft)
05.06.2019 20:50 22,0 C 58 % 1003,8 hPa 0,0 mm O-SO 105 1,6 km/h (1 Bft)
05.06.2019 20:55 21,9 C 60 % 1003,8 hPa 0,0 mm O-SO 105 1,6 km/h (1 Bft)
05.06.2019 21:00 21,7 C 61 % 1003,8 hPa 0,0 mm O-SO 105 0,0 km/h (0 Bft)
05.06.2019 21:05 21,6 C 61 % 1003,8 hPa 0,0 mm O-SO 105 0,0 km/h (0 Bft)
05.06.2019 21:10 21,1 C 62 % 1003,8 hPa 0,0 mm O-SO 105 3,2 km/h (1 Bft)
05.06.2019 21:15 20,9 C 62 % 1003,9 hPa 0,0 mm O-SO 105 0,0 km/h (0 Bft)
05.06.2019 21:20 20,8 C 63 % 1003,9 hPa 0,0 mm O-SO 105 0,0 km/h (0 Bft)
05.06.2019 21:25 20,6 C 63 % 1003,9 hPa 0,0 mm O-SO 105 3,2 km/h (1 Bft)
05.06.2019 21:30 20,2 C 64 % 1003,9 hPa 0,0 mm O-SO 105 1,6 km/h (1 Bft)
05.06.2019 21:35 19,9 C 65 % 1003,9 hPa 0,0 mm O-SO 105 3,2 km/h (1 Bft)
05.06.2019 21:40 19,7 C 65 % 1003,8 hPa 0,0 mm O-SO 105 1,6 km/h (1 Bft)
05.06.2019 21:45 19,6 C 65 % 1003,8 hPa 0,0 mm O-SO 105 0,0 km/h (0 Bft)
05.06.2019 21:50 19,6 C 65 % 1003,8 hPa 0,0 mm O-SO 105 0,0 km/h (0 Bft)
05.06.2019 21:55 19,4 C 65 % 1003,8 hPa 0,0 mm O-SO 105 0,0 km/h (0 Bft)
05.06.2019 22:00 19,3 C 66 % 1003,8 hPa 0,0 mm O-SO 105 1,6 km/h (1 Bft)
05.06.2019 22:05 19,2 C 67 % 1003,8 hPa 0,0 mm O-SO 105 1,6 km/h (1 Bft)
05.06.2019 22:10 18,9 C 69 % 1003,9 hPa 0,0 mm O-SO 105 0,0 km/h (0 Bft)
05.06.2019 22:15 18,8 C 69 % 1003,8 hPa 0,0 mm O-SO 105 1,6 km/h (1 Bft)
05.06.2019 22:20 18,7 C 70 % 1003,8 hPa 0,0 mm O-SO 105 3,2 km/h (1 Bft)
05.06.2019 22:25 18,5 C 71 % 1003,7 hPa 0,0 mm O-SO 105 4,8 km/h (1 Bft)
05.06.2019 22:30 18,3 C 71 % 1003,7 hPa 0,0 mm O 95 6,4 km/h (2 Bft)
05.06.2019 22:35 18,1 C 71 % 1003,7 hPa 0,0 mm O 95 4,8 km/h (1 Bft)
05.06.2019 22:40 18,1 C 72 % 1003,6 hPa 0,0 mm O 81 4,8 km/h (1 Bft)
05.06.2019 22:45 17,9 C 72 % 1003,6 hPa 0,0 mm O-SO 109 6,4 km/h (2 Bft)
05.06.2019 22:50 17,8 C 72 % 1003,6 hPa 0,0 mm O-SO 102 8,0 km/h (2 Bft)
05.06.2019 22:55 17,8 C 72 % 1003,6 hPa 0,0 mm O-SO 102 4,8 km/h (1 Bft)
05.06.2019 23:00 17,9 C 73 % 1003,6 hPa 0,0 mm O-SO 102 3,2 km/h (1 Bft)
05.06.2019 23:05 17,9 C 73 % 1003,7 hPa 0,0 mm O-SO 102 3,2 km/h (1 Bft)
05.06.2019 23:10 17,8 C 72 % 1003,6 hPa 0,0 mm O-SO 118 4,8 km/h (1 Bft)
05.06.2019 23:15 17,9 C 73 % 1003,6 hPa 0,0 mm SO 125 6,4 km/h (2 Bft)
05.06.2019 23:20 18,0 C 73 % 1003,7 hPa 0,0 mm SO 139 6,4 km/h (2 Bft)
05.06.2019 23:25 18,2 C 72 % 1003,6 hPa 0,0 mm O-SO 113 4,8 km/h (1 Bft)
05.06.2019 23:30 18,2 C 72 % 1003,5 hPa 0,0 mm O-SO 113 1,6 km/h (1 Bft)
05.06.2019 23:35 18,2 C 72 % 1003,5 hPa 0,0 mm O 99 4,8 km/h (1 Bft)
05.06.2019 23:40 18,2 C 72 % 1003,5 hPa 0,0 mm O 99 3,2 km/h (1 Bft)
05.06.2019 23:45 18,1 C 72 % 1003,4 hPa 0,0 mm O-NO 59 8,0 km/h (2 Bft)
05.06.2019 23:50 17,9 C 73 % 1003,4 hPa 0,0 mm O-SO 110 3,2 km/h (1 Bft)
05.06.2019 23:55 17,8 C 73 % 1003,3 hPa 0,0 mm O-SO 110 0,0 km/h (0 Bft)
_ Min-Zeit 05:35 16:05 23:55 - - - 00:40
Minimum _ 11,6 C 45 % 1003,3 hPa - - - 0,0 km/h (0 Bft)
_ Max-Zeit 16:00 06:30 00:05 00:00 - - 15:25
Maximum _ 27,4 C 91 % 1009,0 hPa 0,0 mm - - 20,9 km/h
O (4 Bft)
Durchschnitt _ 20,3 C 68 % 1006,4 hPa #0,0 mm O-SO - 6,1 km/h (2 Bft)